EN

Hourly Weather Altenau

Today, 21 January, Thursday

Time Temperature Precipitation Wind Pressure Humidity
00:00 +1°C° 0 mm 6 mps 693 mmHg 80%
01:00 +1°C° 0 mm 5 mps 692 mmHg 82%
02:00 +1°C° 0 mm 6 mps 691 mmHg 80%
03:00 0°C° 0 mm 7 mps 691 mmHg 78%
04:00 0°C° 0 mm 7 mps 690 mmHg 77%
05:00 0°C° 0 mm 8 mps 690 mmHg 76%
06:00 0°C° 0 mm 8 mps 690 mmHg 75%
07:00 0°C° 0 mm 8 mps 688 mmHg 72%
08:00 +1°C° 0.1 mm 8 mps 689 mmHg 75%
09:00 +1°C° 0.1 mm 8 mps 689 mmHg 78%
10:00 +2°C° 0.1 mm 8 mps 690 mmHg 81%
11:00 +2°C° 0.7 mm 7 mps 690 mmHg 82%
12:00 +1°C° 0.7 mm 6 mps 690 mmHg 83%
13:00 -1°C° 0.7 mm 6 mps 690 mmHg 84%
14:00 0°C° 0 mm 5 mps 690 mmHg 82%
15:00 0°C° 0 mm 5 mps 690 mmHg 80%
16:00 +1°C° 0 mm 5 mps 691 mmHg 78%
17:00 0°C° 0 mm 5 mps 690 mmHg 79%
18:00 0°C° 0 mm 5 mps 690 mmHg 80%
19:00 -1°C° 0 mm 5 mps 690 mmHg 80%
20:00 -1°C° 0.1 mm 5 mps 690 mmHg 83%
21:00 0°C° 0.1 mm 5 mps 689 mmHg 85%
22:00 0°C° 0.1 mm 5 mps 689 mmHg 88%
23:00 +1°C° 0.1 mm 6 mps 688 mmHg 87%

Tomorrow, 22 January, Friday

Time Temperature Precipitation Wind Pressure Humidity
00:00 +2°C° 0.1 mm 7 mps 688 mmHg 86%
01:00 +2°C° 0.1 mm 8 mps 687 mmHg 85%
02:00 +2°C° 0.1 mm 9 mps 687 mmHg 84%
03:00 +2°C° 0.1 mm 9 mps 686 mmHg 82%
04:00 +2°C° 0.1 mm 9 mps 686 mmHg 81%
05:00 +2°C° 0.1 mm 9 mps 686 mmHg 82%
06:00 +2°C° 0.1 mm 9 mps 686 mmHg 83%
07:00 +1°C° 0.1 mm 8 mps 686 mmHg 85%
08:00 0°C° 1 mm 7 mps 686 mmHg 87%
09:00 -1°C° 1 mm 6 mps 686 mmHg 90%
10:00 -1°C° 1 mm 4 mps 686 mmHg 93%
11:00 -1°C° 0.2 mm 4 mps 687 mmHg 89%
12:00 -1°C° 0.2 mm 4 mps 687 mmHg 85%
13:00 0°C° 0.2 mm 4 mps 688 mmHg 81%
14:00 0°C° 0 mm 3 mps 688 mmHg 82%
15:00 +1°C° 0 mm 2 mps 688 mmHg 82%
16:00 +1°C° 0 mm 2 mps 689 mmHg 82%
17:00 +1°C° 0 mm 1 mps 689 mmHg 84%
18:00 +1°C° 0 mm 1 mps 689 mmHg 86%
19:00 0°C° 0 mm 1 mps 689 mmHg 87%
20:00 0°C° 0 mm 1 mps 689 mmHg 87%
21:00 0°C° 0 mm 1 mps 690 mmHg 87%
22:00 -1°C° 0 mm 0 mps 690 mmHg 88%
23:00 -1°C° 0 mm 0 mps 690 mmHg 88%

Day after tomorrow, 23 January, Saturday

Time Temperature Precipitation Wind Pressure Humidity
00:00 -1°C° 0 mm 0 mps 690 mmHg 88%
01:00 -1°C° 0 mm 0 mps 690 mmHg 89%
02:00 -1°C° 0 mm 0 mps 690 mmHg 90%
03:00 -1°C° 0 mm 0 mps 690 mmHg 91%
04:00 -1°C° 0 mm 0 mps 690 mmHg 92%
05:00 -1°C° 0 mm 0 mps 690 mmHg 93%
06:00 -2°C° 0 mm 0 mps 690 mmHg 94%
07:00 -2°C° 0 mm 0 mps 690 mmHg 94%
08:00 -1°C° 0 mm 0 mps 690 mmHg 93%
09:00 -1°C° 0 mm 0 mps 690 mmHg 92%
10:00 -1°C° 0 mm 0 mps 690 mmHg 91%
11:00 +1°C° 0 mm 1 mps 690 mmHg 88%
12:00 +1°C° 0 mm 1 mps 690 mmHg 84%
13:00 +1°C° 0 mm 2 mps 690 mmHg 81%
14:00 +1°C° 0 mm 1 mps 690 mmHg 83%
15:00 +1°C° 0 mm 1 mps 690 mmHg 85%
16:00 +1°C° 0 mm 1 mps 690 mmHg 87%
17:00 0°C° 0 mm 1 mps 690 mmHg 88%
18:00 -1°C° 0 mm 1 mps 690 mmHg 90%
19:00 -1°C° 0 mm 1 mps 690 mmHg 91%
20:00 -2°C° 0 mm 1 mps 690 mmHg 92%
21:00 -2°C° 0 mm 1 mps 690 mmHg 92%
22:00 -2°C° 0 mm 1 mps 690 mmHg 92%
23:00 -2°C° 0 mm 1 mps 690 mmHg 93%

24 January, Sunday

Time Temperature Precipitation Wind Pressure Humidity
00:00 -2°C° 0 mm 1 mps 690 mmHg 93%
01:00 -4°C° 0 mm 2 mps 690 mmHg 93%
02:00 -2°C° 0 mm 1 mps 690 mmHg 93%
03:00 -2°C° 0 mm 1 mps 689 mmHg 93%
04:00 -2°C° 0 mm 1 mps 689 mmHg 94%
05:00 -4°C° 0 mm 2 mps 689 mmHg 94%
06:00 -4°C° 0 mm 2 mps 690 mmHg 94%
07:00 -4°C° 0 mm 2 mps 690 mmHg 94%
08:00 -3°C° 0.2 mm 2 mps 690 mmHg 93%
09:00 -3°C° 0.2 mm 2 mps 690 mmHg 93%
10:00 -4°C° 0.2 mm 3 mps 691 mmHg 92%
11:00 -4°C° 0.1 mm 3 mps 691 mmHg 89%
12:00 -4°C° 0.1 mm 4 mps 691 mmHg 87%
13:00 -3°C° 0.1 mm 4 mps 691 mmHg 84%
14:00 -4°C° 0 mm 4 mps 691 mmHg 83%
15:00 -4°C° 0 mm 3 mps 691 mmHg 83%
16:00 -4°C° 0 mm 3 mps 691 mmHg 82%
17:00 -5°C° 0 mm 3 mps 692 mmHg 85%
18:00 -4°C° 0 mm 2 mps 692 mmHg 88%
19:00 -5°C° 0 mm 2 mps 692 mmHg 90%
20:00 -5°C° 0 mm 2 mps 693 mmHg 91%
21:00 -6°C° 0 mm 2 mps 693 mmHg 91%
22:00 -4°C° 0 mm 1 mps 693 mmHg 92%
23:00 -4°C° 0 mm 1 mps 693 mmHg 92%

25 January, Monday

Time Temperature Precipitation Wind Pressure Humidity
00:00 -4°C° 0 mm 1 mps 693 mmHg 92%
01:00 -4°C° 0 mm 1 mps 693 mmHg 92%
02:00 -4°C° 0 mm 1 mps 694 mmHg 91%
03:00 -6°C° 0 mm 2 mps 694 mmHg 91%
04:00 -6°C° 0 mm 2 mps 694 mmHg 91%
05:00 -6°C° 0 mm 2 mps 694 mmHg 91%
06:00 -6°C° 0 mm 2 mps 695 mmHg 91%
07:00 -6°C° 0 mm 2 mps 695 mmHg 91%
08:00 -6°C° 0 mm 2 mps 696 mmHg 88%
09:00 -6°C° 0 mm 3 mps 696 mmHg 84%
10:00 -5°C° 0 mm 3 mps 697 mmHg 81%
11:00 -5°C° 0 mm 3 mps 697 mmHg 75%
12:00 -4°C° 0 mm 3 mps 697 mmHg 70%
13:00 -2°C° 0 mm 3 mps 697 mmHg 64%
14:00 -4°C° 0 mm 3 mps 697 mmHg 67%
15:00 -3°C° 0 mm 2 mps 697 mmHg 70%
16:00 -3°C° 0 mm 2 mps 697 mmHg 73%
17:00 -4°C° 0 mm 2 mps 698 mmHg 77%
18:00 -5°C° 0 mm 2 mps 698 mmHg 80%
19:00 -3°C° 0 mm 1 mps 698 mmHg 84%
20:00 -3°C° 0 mm 1 mps 698 mmHg 87%
21:00 -3°C° 0 mm 1 mps 698 mmHg 89%
22:00 -3°C° 0 mm 1 mps 699 mmHg 91%
23:00 -3°C° 0.1 mm 1 mps 699 mmHg 93%

26 January, Tuesday

Time Temperature Precipitation Wind Pressure Humidity
00:00 -3°C° 0.1 mm 1 mps 699 mmHg 94%
01:00 -3°C° 0.1 mm 1 mps 699 mmHg 95%
02:00 -4°C° 0 mm 1 mps 699 mmHg 95%
03:00 -4°C° 0 mm 1 mps 699 mmHg 95%
04:00 -4°C° 0 mm 1 mps 700 mmHg 95%
05:00 -4°C° 0 mm 1 mps 700 mmHg 94%
06:00 -4°C° 0 mm 1 mps 700 mmHg 93%
07:00 -5°C° 0 mm 2 mps 701 mmHg 93%
08:00 -5°C° 0 mm 2 mps 701 mmHg 90%
09:00 -6°C° 0 mm 3 mps 701 mmHg 87%
10:00 -5°C° 0 mm 3 mps 702 mmHg 84%
11:00 -5°C° 0 mm 3 mps 702 mmHg 82%
12:00 -4°C° 0 mm 4 mps 702 mmHg 80%
13:00 -3°C° 0 mm 4 mps 702 mmHg 78%
14:00 -3°C° 0 mm 4 mps 702 mmHg 82%
15:00 -3°C° 0 mm 4 mps 702 mmHg 85%
16:00 -2°C° 0 mm 3 mps 702 mmHg 88%
17:00 -4°C° 0 mm 3 mps 702 mmHg 88%
18:00 -4°C° 0 mm 3 mps 702 mmHg 89%
19:00 -5°C° 0 mm 3 mps 701 mmHg 90%
20:00 -5°C° 0 mm 3 mps 701 mmHg 91%
21:00 -5°C° 0 mm 3 mps 701 mmHg 91%
22:00 -5°C° 0 mm 3 mps 701 mmHg 92%
23:00 -5°C° 0 mm 3 mps 700 mmHg 92%
Show more